Weather History for Hyeres, France

Change the Weather History Date:

Saturday, November 30, 2013

  Actual Average Record
Temperature  
Mean Temperature 43 °F -  
Max Temperature 51 °F 55 °F 67 °F (2014)
Min Temperature 35 °F 42 °F 35 °F (2005)
Degree Days  
Heating Degree Days 22    
Moisture  
Dew Point 35 °F    
Average Humidity 71    
Maximum Humidity 87    
Minimum Humidity 54    
Precipitation  
Precipitation 0.00 in - - ()
Sea Level Pressure  
Sea Level Pressure 29.87 in    
Wind  
Wind Speed 5 mph ()    
Max Wind Speed 17 mph    
Max Gust Speed -    
Visibility 6.1 miles    
Events Rain    
Averages and records for this station are not official NWS values.
T = Trace of Precipitation, MM = Missing Value Source: Averaged Metar Reports

Daily Weather History Graph

Daily Weather History Graph

Search for Another Location

Airport:

Trip Planner

Search our weather history database for the weather conditions in past years. The results will help you decide how hot, cold, wet, or windy it might be!

Date:

Astronomy

Nov. 30, 2013 Rise Set
Actual Time 7:46 AM CET 5:01 PM CET
Civil Twilight 7:14 AM CET 5:33 PM CET
Nautical Twilight 6:39 AM CET 6:08 PM CET
Astronomical Twilight 6:04 AM CET 6:43 PM CET
Moon 4:35 AM CET (11/30) 3:18 PM CET (11/30)
Length of Visible Light 10h 19m
Length of Day
9h 15m
Waning Crescent, 9% of the Moon is Illuminated
Nov 30
Waning Crescent
Dec 3
New
Dec 9
First Quarter
Dec 17
Full
Dec 25
Last Quarter

Hourly Weather History & Observations

Time (CET) Temp. Windchill Dew Point Humidity Pressure Visibility Wind Dir Wind Speed Gust Speed Precip Events Conditions
12:00 AM 39.2 °F - 28.4 °F 65% 30.04 in 6.2 mi Variable 2.3 mph - N/A   Unknown
12:30 AM 37.4 °F 34.9 °F 26.6 °F 65% 30.01 in 6.2 mi West 3.5 mph - N/A   Unknown
1:00 AM 37.4 °F 32.1 °F 28.4 °F 70% 30.01 in 6.2 mi WNW 6.9 mph - N/A   Unknown
1:30 AM 35.6 °F 29.9 °F 26.6 °F 70% 29.98 in 6.2 mi West 6.9 mph - N/A   Unknown
2:00 AM 37.4 °F 33.8 °F 28.4 °F 70% 29.98 in 6.2 mi WNW 4.6 mph - N/A   Unknown
2:30 AM 37.4 °F - 28.4 °F 70% 29.95 in 6.2 mi Variable 1.2 mph - N/A   Unknown
3:00 AM 37.4 °F 33.8 °F 28.4 °F 70% 29.95 in 6.2 mi WNW 4.6 mph - N/A   Unknown
3:30 AM 37.4 °F 33.8 °F 28.4 °F 70% 29.92 in 6.2 mi West 4.6 mph - N/A   Unknown
4:00 AM 39.2 °F - 28.4 °F 65% 29.89 in 6.2 mi Variable 2.3 mph - N/A   Unknown
4:30 AM 39.2 °F 37.0 °F 30.2 °F 70% 29.89 in 6.2 mi NW 3.5 mph - N/A   Unknown
5:00 AM 41.0 °F 36.4 °F 28.4 °F 61% 29.86 in 6.2 mi West 6.9 mph - N/A   Unknown
5:30 AM 41.0 °F 34.7 °F 30.2 °F 65% 29.86 in 6.2 mi WNW 10.4 mph - N/A   Unknown
6:00 AM 41.0 °F 36.4 °F 30.2 °F 65% 29.83 in 6.2 mi WNW 6.9 mph - N/A   Unknown
6:30 AM 41.0 °F 38.0 °F 30.2 °F 65% 29.83 in 6.2 mi WNW 4.6 mph - N/A   Unknown
7:00 AM 41.0 °F 39.0 °F 30.2 °F 65% 29.80 in 6.2 mi WNW 3.5 mph - N/A   Unknown
7:30 AM 41.0 °F - 30.2 °F 65% 29.80 in 6.2 mi Variable 1.2 mph - N/A   Unknown
8:00 AM 41.0 °F - 32.0 °F 70% 29.80 in 6.2 mi Variable 2.3 mph - N/A   Unknown
8:30 AM 39.2 °F - 32.0 °F 75% 29.80 in 6.2 mi Variable 1.2 mph - N/A   Unknown
9:00 AM 41.0 °F - 32.0 °F 70% 29.80 in 6.2 mi Calm Calm - N/A   Unknown
9:30 AM 42.8 °F - 35.6 °F 76% 29.80 in 5.6 mi Variable 2.3 mph - N/A   Unknown
10:00 AM 46.4 °F - 35.6 °F 66% 29.83 in 6.2 mi Variable 2.3 mph - N/A   Unknown
10:30 AM 48.2 °F - 35.6 °F 62% 29.80 in 6.2 mi NNW 5.8 mph - N/A   Unknown
11:00 AM 50.0 °F - 35.6 °F 58% 29.80 in 6.2 mi NNW 5.8 mph - N/A   Mostly Cloudy
11:30 AM 50.0 °F - 37.4 °F 62% 29.80 in 6.2 mi NW 3.5 mph - N/A   Overcast
12:00 PM 48.2 °F - 39.2 °F 71% 29.80 in 6.2 mi NNW 3.5 mph - N/A Rain Light Rain
12:30 PM 48.2 °F - 39.2 °F 71% 29.77 in 6.2 mi NW 4.6 mph - N/A   Overcast
1:00 PM 50.0 °F - 39.2 °F 66% 29.77 in 6.2 mi North 6.9 mph - N/A   Overcast
1:30 PM 51.8 °F - 37.4 °F 58% 29.77 in 6.2 mi North 5.8 mph - N/A   Unknown
2:00 PM 51.8 °F - 37.4 °F 58% 29.77 in 6.2 mi NNW 5.8 mph - N/A   Mostly Cloudy
2:30 PM 51.8 °F - 35.6 °F 54% 29.77 in 6.2 mi North 9.2 mph - N/A   Overcast
3:00 PM 50.0 °F - 37.4 °F 62% 29.80 in 6.2 mi North 17.3 mph - N/A   Overcast
3:30 PM 48.2 °F - 39.2 °F 71% 29.83 in 6.2 mi North 15.0 mph - N/A Rain Light Rain
4:00 PM 46.4 °F 41.5 °F 39.2 °F 76% 29.83 in 6.2 mi North 10.4 mph - N/A Rain Light Rain
4:30 PM 44.6 °F 38.8 °F 41.0 °F 87% 29.83 in 3.7 mi North 11.5 mph - N/A Rain Light Rain
5:00 PM 44.6 °F 39.2 °F 41.0 °F 87% 29.86 in 5.6 mi North 10.4 mph - N/A Rain Light Rain
5:30 PM 44.6 °F 37.8 °F 41.0 °F 87% 29.86 in 6.2 mi North 15.0 mph - N/A Rain Light Rain
6:00 PM 46.4 °F 40.4 °F 41.0 °F 81% 29.86 in 6.2 mi North 13.8 mph - N/A Rain Light Rain
6:30 PM 46.4 °F 42.4 °F 41.0 °F 81% 29.89 in 6.2 mi North 8.1 mph - N/A Rain Light Rain
7:00 PM 44.6 °F 39.7 °F 41.0 °F 87% 29.86 in 6.2 mi NNW 9.2 mph - N/A Rain Light Rain
7:30 PM 46.4 °F 42.4 °F 41.0 °F 81% 29.89 in 6.2 mi North 8.1 mph - N/A   Overcast
8:00 PM 50.0 °F - 42.8 °F 76% 29.92 in 6.2 mi NNE 13.8 mph - N/A   Unknown
8:30 PM 48.2 °F - 41.0 °F 76% 29.92 in 6.2 mi North 10.4 mph - N/A Rain Light Rain
9:00 PM 48.2 °F - 42.8 °F 82% 29.92 in 6.2 mi North 8.1 mph - N/A Rain Light Rain
9:30 PM 48.2 °F - 41.0 °F 76% 29.95 in 6.2 mi North 9.2 mph - N/A Rain Light Rain
10:00 PM 48.2 °F - 41.0 °F 76% 29.95 in 6.2 mi North 10.4 mph - N/A   Unknown
10:30 PM 48.2 °F - 39.2 °F 71% 29.95 in 6.2 mi North 9.2 mph - N/A   Unknown
11:00 PM 48.2 °F - 39.2 °F 71% 29.95 in 6.2 mi North 8.1 mph - N/A   Unknown
11:30 PM 48.2 °F - 39.2 °F 71% 29.98 in 6.2 mi North 8.1 mph - N/A   Unknown